| time (UTC) | temp F | wind direction | speed knots | gust knots | rain 1hr in | rain 24hr in | rain mn in | humidity % | barometer mb |
| 20260509112526 | 71 | 184 | 7.0 | 12.2 | 0.00 | 0.00 | 0.00 | 93 | 1009.1 |
| 20260509112026 | 71 | 170 | 6.1 | 10.4 | 0.00 | 0.00 | 0.00 | 93 | 1009.2 |
| 20260509111546 | 71 | 166 | 4.3 | 9.6 | 0.00 | 0.00 | 0.00 | 93 | 1009.3 |
| 20260509111030 | 71 | 207 | 2.6 | 10.4 | 0.00 | 0.00 | 0.00 | 93 | 1009.5 |
| 20260509110525 | 71 | 234 | 4.3 | 13.9 | 0.00 | 0.00 | 0.00 | 93 | 1009.3 |
| 20260509110041 | 71 | 206 | 6.1 | 13.9 | 0.00 | 0.00 | 0.00 | 93 | 1008.8 |
| 20260509105529 | 71 | 212 | 6.1 | 18.2 | 0.00 | 0.00 | 0.00 | 93 | 1008.2 |
| 20260509105029 | 71 | 209 | 9.6 | 20.0 | 0.00 | 0.00 | 0.00 | 93 | 1008.0 |
| 20260509104545 | 71 | 166 | 9.6 | 20.0 | 0.00 | 0.00 | 0.00 | 93 | 1008.1 |
| 20260509104030 | 71 | 184 | 7.8 | 17.4 | 0.00 | 0.00 | 0.00 | 93 | 1008.2 |
| 20260509103526 | 71 | 195 | 8.7 | 16.5 | 0.00 | 0.00 | 0.00 | 93 | 1008.1 |
| 20260509103047 | 71 | 194 | 8.7 | 18.2 | 0.00 | 0.00 | 0.00 | 93 | 1008.0 |
| 20260509102526 | 71 | 140 | 8.7 | 18.2 | 0.00 | 0.00 | 0.00 | 93 | 1008.1 |
| 20260509102027 | 71 | 169 | 8.7 | 13.9 | 0.00 | 0.00 | 0.00 | 93 | 1007.8 |
| 20260509101550 | 71 | 165 | 6.1 | 11.3 | 0.00 | 0.00 | 0.00 | 92 | 1008.2 |
| 20260509101027 | 70 | 153 | 6.1 | 11.3 | 0.00 | 0.00 | 0.00 | 92 | 1008.2 |
| 20260509100526 | 70 | 153 | 6.1 | 12.2 | 0.00 | 0.00 | 0.00 | 92 | 1008.3 |
| 20260509100055 | 71 | 165 | 4.3 | 12.2 | 0.00 | 0.00 | 0.00 | 92 | 1008.7 |
| 20260509095526 | 71 | 144 | 5.2 | 9.6 | 0.00 | 0.00 | 0.00 | 91 | 1008.6 |
| 20260509095026 | 71 | 184 | 6.1 | 9.6 | 0.00 | 0.00 | 0.00 | 91 | 1008.6 |
| 20260509094551 | 71 | 150 | 5.2 | 8.7 | 0.00 | 0.00 | 0.00 | 91 | 1009.1 |
| 20260509094026 | 71 | 198 | 4.3 | 8.7 | 0.00 | 0.00 | 0.00 | 91 | 1009.6 |
| 20260509093527 | 71 | 171 | 4.3 | 8.7 | 0.00 | 0.00 | 0.00 | 91 | 1009.8 |
| 20260509093045 | 71 | 155 | 3.5 | 8.7 | 0.00 | 0.00 | 0.00 | 91 | 1009.8 |
| 20260509092525 | 71 | 165 | 4.3 | 8.7 | 0.00 | 0.00 | 0.00 | 91 | 1009.9 |
| 20260509092025 | 71 | 181 | 3.5 | 6.1 | 0.00 | 0.00 | 0.00 | 91 | 1009.9 |
| 20260509091545 | 71 | 187 | 3.5 | 6.1 | 0.00 | 0.00 | 0.00 | 91 | 1010.2 |
| 20260509091030 | 71 | 121 | 2.6 | 7.8 | 0.00 | 0.00 | 0.00 | 91 | 1010.2 |
| 20260509090530 | 71 | 192 | 2.6 | 7.8 | 0.00 | 0.00 | 0.00 | 91 | 1010.4 |
| 20260509090048 | 71 | 166 | 2.6 | 7.8 | 0.00 | 0.00 | 0.00 | 90 | 1010.6 |
| 20260509085526 | 71 | 209 | 0.9 | 4.3 | 0.00 | 0.00 | 0.00 | 90 | 1010.6 |
| 20260509085029 | 71 | 211 | 0.9 | 4.3 | 0.00 | 0.00 | 0.00 | 90 | 1010.8 |
| 20260509084550 | 71 | 213 | 2.6 | 4.3 | 0.00 | 0.00 | 0.00 | 90 | 1010.8 |
| 20260509084026 | 71 | 199 | 1.7 | 4.3 | 0.00 | 0.00 | 0.00 | 90 | 1010.7 |
| 20260509083525 | 71 | 209 | 0.9 | 2.6 | 0.00 | 0.00 | 0.00 | 90 | 1010.7 |
| 20260509083046 | 71 | 211 | 0.9 | 2.6 | 0.00 | 0.00 | 0.00 | 90 | 1011.0 |
| 20260509082526 | 71 | 209 | 0.9 | 2.6 | 0.00 | 0.00 | 0.00 | 90 | 1010.9 |
| 20260509082027 | 71 | 210 | 0.9 | 2.6 | 0.00 | 0.00 | 0.00 | 90 | 1010.9 |
| 20260509081548 | 71 | 209 | 1.7 | 2.6 | 0.00 | 0.00 | 0.00 | 90 | 1010.9 |
| 20260509081026 | 71 | 0 | 0.9 | 2.6 | 0.00 | 0.00 | 0.00 | 90 | 1011.0 |
| 20260509080529 | 71 | 206 | 0.9 | 3.5 | 0.00 | 0.00 | 0.00 | 90 | 1010.9 |
| 20260509080046 | 71 | 0 | 0.0 | 4.3 | 0.00 | 0.00 | 0.00 | 90 | 1011.2 |
| 20260509075528 | 71 | 206 | 0.9 | 4.3 | 0.00 | 0.00 | 0.00 | 90 | 1011.2 |
| 20260509075026 | 71 | 205 | 2.6 | 5.2 | 0.00 | 0.00 | 0.00 | 90 | 1011.3 |
| 20260509074545 | 71 | 0 | 1.7 | 5.2 | 0.00 | 0.00 | 0.00 | 90 | 1011.6 |
| 20260509074028 | 71 | 184 | 2.6 | 4.3 | 0.00 | 0.00 | 0.00 | 90 | 1011.4 |
| 20260509073526 | 71 | 0 | 0.0 | 0.9 | 0.00 | 0.00 | 0.00 | 90 | 1011.6 |
| 20260509073046 | 71 | 0 | 0.0 | 1.7 | 0.00 | 0.00 | 0.00 | 90 | 1011.4 |
| 20260509072532 | 71 | 0 | 0.0 | 1.7 | 0.00 | 0.00 | 0.00 | 90 | 1011.4 |
| 20260509072025 | 71 | 0 | 0.0 | 1.7 | 0.00 | 0.00 | 0.00 | 89 | 1011.3 |
| 20260509071544 | 70 | 135 | 0.0 | 1.7 | 0.00 | 0.00 | 0.00 | 89 | 1011.2 |
| 20260509071026 | 70 | 136 | 0.9 | 1.7 | 0.00 | 0.00 | 0.00 | 89 | 1011.2 |
| 20260509070527 | 71 | 134 | 0.0 | 1.7 | 0.00 | 0.00 | 0.00 | 89 | 1011.1 |
| 20260509070045 | 71 | 0 | 0.0 | 1.7 | 0.00 | 0.00 | 0.00 | 89 | 1011.0 |
| 20260509065529 | 71 | 0 | 0.0 | 2.6 | 0.00 | 0.00 | 0.00 | 89 | 1011.1 |
| 20260509065028 | 71 | 134 | 0.9 | 2.6 | 0.00 | 0.00 | 0.00 | 89 | 1011.0 |
| 20260509064615 | 71 | 0 | 0.0 | 2.6 | 0.00 | 0.00 | 0.00 | 89 | 1011.0 |
| 20260509064029 | 71 | 154 | 0.0 | 4.3 | 0.00 | 0.00 | 0.00 | 89 | 1010.8 |
| 20260509063529 | 71 | 154 | 0.9 | 5.2 | 0.00 | 0.00 | 0.00 | 89 | 1010.7 |
| 20260509063044 | 71 | 151 | 1.7 | 5.2 | 0.00 | 0.00 | 0.00 | 89 | 1010.5 |
| 20260509062530 | 71 | 148 | 2.6 | 4.3 | 0.00 | 0.00 | 0.00 | 88 | 1010.4 |
| 20260509062027 | 71 | 136 | 1.7 | 5.2 | 0.00 | 0.00 | 0.00 | 88 | 1010.6 |
| 20260509061549 | 71 | 150 | 0.9 | 5.2 | 0.00 | 0.00 | 0.00 | 88 | 1010.5 |
| 20260509061029 | 71 | 122 | 1.7 | 7.0 | 0.00 | 0.00 | 0.00 | 88 | 1010.4 |
| 20260509060529 | 72 | 124 | 2.6 | 7.0 | 0.00 | 0.00 | 0.00 | 88 | 1010.4 |
| 20260509060043 | 72 | 98 | 2.6 | 7.0 | 0.00 | 0.00 | 0.00 | 88 | 1010.6 |
| 20260509055530 | 72 | 127 | 2.6 | 6.1 | 0.00 | 0.00 | 0.00 | 87 | 1010.9 |
| 20260509055029 | 72 | 113 | 1.7 | 3.5 | 0.00 | 0.00 | 0.00 | 87 | 1011.1 |
| 20260509054601 | 72 | 51 | 0.9 | 2.6 | 0.00 | 0.00 | 0.00 | 87 | 1011.3 |
| 20260509054032 | 72 | 51 | 0.9 | 2.6 | 0.00 | 0.00 | 0.00 | 87 | 1011.3 |
| 20260509053528 | 72 | 50 | 0.0 | 2.6 | 0.00 | 0.00 | 0.00 | 87 | 1011.5 |
| 20260509053044 | 72 | 0 | 0.0 | 2.6 | 0.00 | 0.00 | 0.00 | 87 | 1011.4 |
| 20260509052528 | 72 | 0 | 0.9 | 2.6 | 0.00 | 0.00 | 0.00 | 87 | 1011.5 |
| 20260509052030 | 72 | 57 | 0.0 | 1.7 | 0.00 | 0.00 | 0.00 | 87 | 1011.4 |
| 20260509051544 | 72 | 57 | 0.0 | 1.7 | 0.00 | 0.00 | 0.00 | 87 | 1011.4 |
| 20260509051026 | 72 | 57 | 0.0 | 0.9 | 0.00 | 0.00 | 0.00 | 86 | 1011.3 |
| 20260509050526 | 72 | 0 | 0.0 | 0.0 | 0.00 | 0.00 | 0.00 | 86 | 1011.2 |
| 20260509050055 | 72 | 0 | 0.0 | 0.0 | 0.00 | 0.00 | 0.00 | 86 | 1011.3 |
| 20260509045528 | 72 | 0 | 0.0 | 0.9 | 0.00 | 0.00 | 0.00 | 86 | 1011.1 |
| 20260509045026 | 72 | 0 | 0.0 | 1.7 | 0.00 | 0.00 | 0.00 | 86 | 1011.2 |
| 20260509044546 | 72 | 58 | 0.0 | 1.7 | 0.00 | 0.00 | 0.00 | 86 | 1011.1 |
| 20260509044025 | 72 | 121 | 0.0 | 1.7 | 0.00 | 0.00 | 0.00 | 86 | 1011.1 |
| 20260509043526 | 72 | 121 | 0.0 | 1.7 | 0.00 | 0.00 | 0.00 | 86 | 1011.0 |
| 20260509043046 | 72 | 0 | 0.0 | 1.7 | 0.00 | 0.00 | 0.00 | 86 | 1011.0 |
| 20260509042528 | 72 | 0 | 0.0 | 1.7 | 0.00 | 0.00 | 0.00 | 86 | 1010.9 |
| 20260509042027 | 72 | 121 | 0.0 | 1.7 | 0.00 | 0.00 | 0.00 | 86 | 1010.8 |
| 20260509041547 | 72 | 0 | 0.0 | 0.9 | 0.00 | 0.00 | 0.00 | 85 | 1010.7 |
| 20260509041028 | 72 | 142 | 0.0 | 2.6 | 0.00 | 0.00 | 0.00 | 85 | 1010.7 |
| 20260509040525 | 72 | 0 | 0.0 | 3.5 | 0.00 | 0.00 | 0.00 | 85 | 1010.7 |
| 20260509040054 | 72 | 132 | 1.7 | 3.5 | 0.00 | 0.00 | 0.00 | 85 | 1010.4 |
| 20260509035527 | 72 | 121 | 1.7 | 3.5 | 0.00 | 0.00 | 0.00 | 85 | 1010.2 |
| 20260509035029 | 73 | 129 | 1.7 | 3.5 | 0.00 | 0.00 | 0.00 | 85 | 1010.3 |
| 20260509034548 | 73 | 132 | 0.9 | 1.7 | 0.00 | 0.00 | 0.00 | 85 | 1010.5 |
| 20260509034027 | 73 | 0 | 0.0 | 0.0 | 0.00 | 0.00 | 0.00 | 85 | 1010.6 |
| 20260509033527 | 73 | 0 | 0.0 | 0.0 | 0.00 | 0.00 | 0.00 | 85 | 1010.7 |
| 20260509033040 | 73 | 0 | 0.0 | 0.0 | 0.00 | 0.00 | 0.00 | 85 | 1010.6 |
| 20260509032527 | 73 | 0 | 0.0 | 0.0 | 0.00 | 0.00 | 0.00 | 85 | 1010.6 |
| 20260509032029 | 73 | 0 | 0.0 | 0.0 | 0.00 | 0.00 | 0.00 | 84 | 1010.5 |
| 20260509031558 | 73 | 0 | 0.0 | 0.0 | 0.00 | 0.00 | 0.00 | 84 | 1010.4 |
| 20260509031027 | 73 | 0 | 0.0 | 0.0 | 0.00 | 0.00 | 0.00 | 84 | 1010.4 |
| 20260509030529 | 73 | 0 | 0.0 | 0.0 | 0.00 | 0.00 | 0.00 | 84 | 1010.3 |
| 20260509030045 | 73 | 0 | 0.0 | 1.7 | 0.00 | 0.00 | 0.00 | 84 | 1010.0 |
| 20260509025527 | 73 | 0 | 0.0 | 1.7 | 0.00 | 0.00 | 0.00 | 84 | 1009.9 |
| 20260509025027 | 73 | 132 | 0.0 | 1.7 | 0.00 | 0.00 | 0.00 | 84 | 1009.8 |
| 20260509024541 | 73 | 0 | 0.0 | 0.0 | 0.00 | 0.00 | 0.00 | 84 | 1009.8 |
| 20260509024027 | 73 | 0 | 0.0 | 0.0 | 0.00 | 0.00 | 0.00 | 83 | 1009.6 |
| 20260509023527 | 73 | 0 | 0.0 | 0.0 | 0.00 | 0.00 | 0.00 | 83 | 1009.6 |
| 20260509023053 | 73 | 0 | 0.0 | 0.0 | 0.00 | 0.00 | 0.00 | 83 | 1009.6 |
| 20260509022527 | 73 | 0 | 0.0 | 0.0 | 0.00 | 0.00 | 0.00 | 83 | 1009.6 |
| 20260509022027 | 73 | 0 | 0.0 | 0.0 | 0.00 | 0.00 | 0.00 | 83 | 1009.6 |
| 20260509021539 | 73 | 0 | 0.0 | 0.0 | 0.00 | 0.00 | 0.00 | 83 | 1009.6 |
| 20260509021030 | 73 | 0 | 0.0 | 1.7 | 0.00 | 0.00 | 0.00 | 83 | 1009.5 |
| 20260509020532 | 73 | 0 | 0.0 | 1.7 | 0.00 | 0.00 | 0.00 | 83 | 1009.4 |
| 20260509020046 | 74 | 132 | 0.0 | 1.7 | 0.00 | 0.00 | 0.00 | 83 | 1009.3 |
| 20260509015527 | 73 | 0 | 0.0 | 1.7 | 0.00 | 0.00 | 0.00 | 82 | 1009.3 |
| 20260509015026 | 74 | 132 | 0.0 | 2.6 | 0.00 | 0.00 | 0.00 | 82 | 1009.2 |
| 20260509014547 | 74 | 0 | 0.0 | 2.6 | 0.00 | 0.00 | 0.00 | 82 | 1009.1 |
| 20260509014024 | 74 | 132 | 0.9 | 2.6 | 0.00 | 0.00 | 0.00 | 82 | 1009.0 |
| 20260509013527 | 74 | 0 | 0.9 | 2.6 | 0.00 | 0.00 | 0.00 | 81 | 1009.0 |
| 20260509013106 | 74 | 132 | 0.9 | 3.5 | 0.00 | 0.00 | 0.00 | 81 | 1009.0 |
| 20260509012526 | 74 | 139 | 1.7 | 4.3 | 0.00 | 0.00 | 0.00 | 81 | 1008.9 |
| 20260509012027 | 74 | 147 | 1.7 | 5.2 | 0.00 | 0.00 | 0.00 | 81 | 1008.8 |
| 20260509011540 | 74 | 139 | 1.7 | 6.1 | 0.00 | 0.00 | 0.00 | 81 | 1008.7 |
| 20260509011027 | 75 | 133 | 1.7 | 6.1 | 0.00 | 0.00 | 0.00 | 80 | 1008.6 |
| 20260509010529 | 75 | 161 | 0.9 | 5.2 | 0.00 | 0.00 | 0.00 | 80 | 1008.7 |
| 20260509010038 | 75 | 145 | 1.7 | 6.1 | 0.00 | 0.00 | 0.00 | 79 | 1008.7 |
| 20260509005526 | 75 | 142 | 1.7 | 7.0 | 0.00 | 0.00 | 0.00 | 79 | 1008.6 |
| 20260509005027 | 76 | 123 | 3.5 | 7.0 | 0.00 | 0.00 | 0.00 | 79 | 1008.5 |
| 20260509004544 | 76 | 136 | 2.6 | 7.0 | 0.00 | 0.00 | 0.00 | 78 | 1008.5 |
| 20260509004026 | 76 | 106 | 2.6 | 6.1 | 0.00 | 0.00 | 0.00 | 78 | 1008.7 |
| 20260509003526 | 76 | 135 | 2.6 | 6.1 | 0.00 | 0.00 | 0.00 | 78 | 1008.7 |
| 20260509003046 | 76 | 169 | 2.6 | 6.1 | 0.00 | 0.00 | 0.00 | 78 | 1008.7 |
| 20260509002526 | 76 | 126 | 1.7 | 4.3 | 0.00 | 0.00 | 0.00 | 78 | 1008.7 |
| 20260509002026 | 76 | 145 | 1.7 | 4.3 | 0.00 | 0.00 | 0.00 | 78 | 1008.7 |
| 20260509001545 | 76 | 143 | 1.7 | 7.0 | 0.00 | 0.00 | 0.00 | 78 | 1008.7 |
| 20260509001028 | 76 | 165 | 1.7 | 7.8 | 0.00 | 0.00 | 0.00 | 78 | 1008.6 |
| 20260509000526 | 76 | 141 | 3.5 | 7.8 | 0.00 | 0.00 | 0.00 | 77 | 1008.7 |
| 20260509000044 | 76 | 183 | 5.2 | 7.8 | 0.00 | 0.00 | 0.00 | 77 | 1008.6 |
| 20260508235526 | 76 | 108 | 2.6 | 9.6 | 0.00 | 0.00 | 0.00 | 77 | 1008.5 |
| 20260508235027 | 76 | 171 | 3.5 | 9.6 | 0.00 | 0.00 | 0.00 | 76 | 1008.5 |
| 20260508234545 | 76 | 171 | 4.3 | 10.4 | 0.00 | 0.00 | 0.00 | 76 | 1008.7 |
| 20260508234030 | 76 | 148 | 5.2 | 10.4 | 0.00 | 0.00 | 0.00 | 76 | 1008.7 |
| 20260508233526 | 76 | 178 | 5.2 | 10.4 | 0.00 | 0.00 | 0.00 | 76 | 1008.6 |
| 20260508233044 | 76 | 140 | 5.2 | 10.4 | 0.00 | 0.00 | 0.00 | 76 | 1008.5 |
| 20260508232525 | 76 | 135 | 4.3 | 9.6 | 0.00 | 0.00 | 0.00 | 76 | 1008.6 |
| 20260508232029 | 76 | 141 | 6.1 | 9.6 | 0.00 | 0.00 | 0.00 | 75 | 1008.7 |
| 20260508231550 | 76 | 117 | 3.5 | 8.7 | 0.00 | 0.00 | 0.00 | 76 | 1008.7 |
| 20260508231029 | 76 | 124 | 4.3 | 9.6 | 0.00 | 0.00 | 0.00 | 75 | 1008.7 |
| 20260508230527 | 76 | 141 | 4.3 | 9.6 | 0.00 | 0.00 | 0.00 | 75 | 1008.8 |
| 20260508230056 | 76 | 125 | 3.5 | 10.4 | 0.00 | 0.00 | 0.00 | 75 | 1008.8 |
| 20260508225527 | 75 | 132 | 5.2 | 12.2 | 0.00 | 0.00 | 0.00 | 75 | 1008.9 |
| 20260508225027 | 75 | 151 | 5.2 | 12.2 | 0.00 | 0.00 | 0.00 | 75 | 1008.9 |
| 20260508224600 | 75 | 142 | 4.3 | 12.2 | 0.00 | 0.00 | 0.00 | 76 | 1009.1 |
| 20260508224026 | 75 | 152 | 6.1 | 12.2 | 0.00 | 0.00 | 0.00 | 75 | 1009.0 |
| 20260508223530 | 75 | 144 | 3.5 | 9.6 | 0.00 | 0.00 | 0.00 | 76 | 1009.2 |
| 20260508223046 | 75 | 165 | 4.3 | 9.6 | 0.00 | 0.00 | 0.00 | 75 | 1009.3 |
| 20260508222526 | 74 | 99 | 4.3 | 8.7 | 0.00 | 0.00 | 0.00 | 76 | 1009.3 |
| 20260508222029 | 74 | 141 | 5.2 | 8.7 | 0.00 | 0.00 | 0.00 | 76 | 1009.3 |
| 20260508221555 | 74 | 157 | 2.6 | 7.0 | 0.00 | 0.00 | 0.00 | 76 | 1009.6 |
| 20260508221026 | 74 | 130 | 2.6 | 7.0 | 0.00 | 0.00 | 0.00 | 76 | 1009.7 |
| 20260508220525 | 73 | 135 | 3.5 | 7.0 | 0.00 | 0.00 | 0.00 | 76 | 1009.8 |
| 20260508220049 | 73 | 136 | 2.6 | 5.2 | 0.00 | 0.00 | 0.00 | 75 | 1009.9 |
| 20260508215530 | 73 | 136 | 1.7 | 5.2 | 0.00 | 0.00 | 0.00 | 75 | 1010.0 |
| 20260508215026 | 73 | 150 | 1.7 | 4.3 | 0.00 | 0.00 | 0.00 | 75 | 1010.0 |
| 20260508214545 | 73 | 0 | 0.9 | 4.3 | 0.00 | 0.00 | 0.00 | 76 | 1010.0 |
| 20260508214030 | 73 | 11 | 1.7 | 4.3 | 0.00 | 0.00 | 0.00 | 77 | 1010.1 |
| 20260508213527 | 73 | 44 | 0.9 | 2.6 | 0.00 | 0.00 | 0.00 | 77 | 1010.1 |
| 20260508213045 | 72 | 50 | 0.9 | 3.5 | 0.00 | 0.00 | 0.00 | 77 | 1010.3 |
| 20260508212531 | 72 | 50 | 1.7 | 3.5 | 0.00 | 0.00 | 0.00 | 76 | 1010.4 |
| 20260508212026 | 72 | 63 | 0.9 | 2.6 | 0.00 | 0.00 | 0.00 | 77 | 1010.6 |
| 20260508211544 | 72 | 57 | 0.9 | 3.5 | 0.00 | 0.00 | 0.00 | 76 | 1010.6 |
| 20260508211029 | 72 | 118 | 0.0 | 6.1 | 0.00 | 0.00 | 0.00 | 76 | 1010.7 |
| 20260508210527 | 72 | 178 | 1.7 | 6.1 | 0.00 | 0.00 | 0.00 | 76 | 1010.7 |
| 20260508210045 | 72 | 186 | 1.7 | 3.5 | 0.00 | 0.00 | 0.00 | 76 | 1010.6 |
| 20260508205526 | 72 | 177 | 0.9 | 3.5 | 0.00 | 0.00 | 0.00 | 77 | 1010.7 |
| 20260508205026 | 72 | 171 | 0.9 | 3.5 | 0.00 | 0.00 | 0.00 | 77 | 1010.7 |
| 20260508204549 | 72 | 97 | 1.7 | 2.6 | 0.00 | 0.00 | 0.00 | 76 | 1010.9 |
| 20260508204026 | 72 | 0 | 0.0 | 3.5 | 0.00 | 0.00 | 0.00 | 76 | 1011.2 |
| 20260508203528 | 72 | 265 | 0.9 | 3.5 | 0.00 | 0.00 | 0.00 | 76 | 1011.3 |
| 20260508203057 | 72 | 251 | 0.0 | 2.6 | 0.00 | 0.00 | 0.00 | 76 | 1011.3 |
| 20260508202530 | 72 | 240 | 0.0 | 3.5 | 0.00 | 0.00 | 0.00 | 75 | 1011.4 |
| 20260508202030 | 72 | 0 | 0.9 | 3.5 | 0.00 | 0.00 | 0.00 | 75 | 1011.4 |
| 20260508201547 | 72 | 140 | 0.9 | 4.3 | 0.00 | 0.00 | 0.00 | 74 | 1011.3 |
| 20260508201030 | 73 | 120 | 0.9 | 4.3 | 0.00 | 0.00 | 0.00 | 74 | 1011.4 |
| 20260508200530 | 73 | 153 | 0.9 | 4.3 | 0.00 | 0.00 | 0.00 | 74 | 1011.4 |
| 20260508200052 | 73 | 198 | 0.0 | 5.2 | 0.00 | 0.00 | 0.00 | 75 | 1011.2 |
| 20260508195530 | 73 | 118 | 2.6 | 7.8 | 0.00 | 0.00 | 0.00 | 74 | 1011.1 |
| 20260508195028 | 72 | 209 | 4.3 | 7.8 | 0.00 | 0.00 | 0.00 | 74 | 1011.3 |
| 20260508194545 | 72 | 151 | 1.7 | 6.1 | 0.00 | 0.00 | 0.00 | 74 | 1011.2 |
| 20260508194029 | 72 | 167 | 2.6 | 6.1 | 0.00 | 0.00 | 0.00 | 74 | 1011.7 |
| 20260508193528 | 72 | 184 | 2.6 | 8.7 | 0.00 | 0.00 | 0.00 | 73 | 1011.7 |
| 20260508193117 | 71 | 101 | 2.6 | 8.7 | 0.00 | 0.00 | 0.00 | 75 | 1011.6 |
| 20260508192527 | 70 | 142 | 2.6 | 4.3 | 0.00 | 0.00 | 0.00 | 76 | 1011.5 |
| 20260508192030 | 70 | 161 | 0.9 | 4.3 | 0.00 | 0.00 | 0.00 | 75 | 1011.7 |
| 20260508191544 | 70 | 170 | 0.9 | 6.1 | 0.00 | 0.00 | 0.00 | 75 | 1011.8 |
| 20260508191028 | 70 | 200 | 3.5 | 6.1 | 0.00 | 0.00 | 0.00 | 75 | 1011.9 |
| 20260508190531 | 70 | 182 | 2.6 | 5.2 | 0.00 | 0.00 | 0.00 | 75 | 1012.0 |
| 20260508190041 | 70 | 135 | 1.7 | 3.5 | 0.00 | 0.00 | 0.00 | 74 | 1012.0 |
| 20260508185530 | 70 | 0 | 1.7 | 4.3 | 0.00 | 0.00 | 0.00 | 74 | 1012.0 |
| 20260508185030 | 70 | 136 | 1.7 | 6.1 | 0.00 | 0.00 | 0.00 | 74 | 1012.1 |
| 20260508184602 | 70 | 198 | 1.7 | 6.1 | 0.00 | 0.00 | 0.00 | 75 | 1012.2 |
| 20260508184030 | 70 | 167 | 2.6 | 6.1 | 0.00 | 0.00 | 0.00 | 74 | 1012.3 |
| 20260508183525 | 70 | 190 | 2.6 | 7.0 | 0.00 | 0.00 | 0.00 | 74 | 1012.5 |
| 20260508183045 | 70 | 121 | 2.6 | 10.4 | 0.00 | 0.00 | 0.00 | 74 | 1012.2 |
| 20260508182528 | 70 | 134 | 3.5 | 10.4 | 0.00 | 0.00 | 0.00 | 73 | 1012.4 |
| 20260508182027 | 70 | 173 | 5.2 | 9.6 | 0.00 | 0.00 | 0.00 | 73 | 1012.5 |
| 20260508181543 | 71 | 126 | 2.6 | 9.6 | 0.00 | 0.00 | 0.00 | 73 | 1012.9 |
| 20260508181031 | 71 | 136 | 4.3 | 9.6 | 0.00 | 0.00 | 0.00 | 72 | 1012.8 |
| 20260508180526 | 71 | 133 | 2.6 | 9.6 | 0.00 | 0.00 | 0.00 | 73 | 1013.0 |
| 20260508180048 | 70 | 111 | 4.3 | 9.6 | 0.00 | 0.00 | 0.00 | 72 | 1012.9 |
| 20260508175527 | 70 | 124 | 3.5 | 8.7 | 0.00 | 0.00 | 0.00 | 72 | 1013.1 |
| 20260508175028 | 70 | 124 | 4.3 | 8.7 | 0.00 | 0.00 | 0.00 | 72 | 1013.1 |
| 20260508174556 | 70 | 151 | 3.5 | 7.8 | 0.00 | 0.00 | 0.00 | 73 | 1012.8 |
| 20260508174031 | 69 | 88 | 3.5 | 7.8 | 0.00 | 0.00 | 0.00 | 74 | 1012.7 |
| 20260508173527 | 69 | 118 | 2.6 | 7.8 | 0.00 | 0.00 | 0.00 | 74 | 1013.0 |
| 20260508173044 | 69 | 100 | 4.3 | 7.8 | 0.00 | 0.00 | 0.00 | 74 | 1013.1 |
| 20260508172526 | 69 | 123 | 4.3 | 7.8 | 0.00 | 0.00 | 0.00 | 74 | 1013.4 |
| 20260508172026 | 69 | 101 | 5.2 | 7.8 | 0.00 | 0.00 | 0.00 | 74 | 1013.4 |
| 20260508171612 | 69 | 115 | 2.6 | 7.0 | 0.00 | 0.00 | 0.00 | 75 | 1013.5 |
| 20260508171025 | 68 | 108 | 2.6 | 8.7 | 0.00 | 0.00 | 0.00 | 74 | 1013.5 |
| 20260508170527 | 69 | 133 | 3.5 | 8.7 | 0.00 | 0.00 | 0.00 | 74 | 1013.7 |
| 20260508170044 | 69 | 117 | 3.5 | 8.7 | 0.00 | 0.00 | 0.00 | 73 | 1013.8 |
| 20260508165527 | 69 | 144 | 3.5 | 7.8 | 0.00 | 0.00 | 0.00 | 73 | 1013.9 |
| 20260508165027 | 69 | 232 | 3.5 | 7.8 | 0.00 | 0.00 | 0.00 | 73 | 1014.0 |
| 20260508164544 | 69 | 121 | 1.7 | 7.8 | 0.00 | 0.00 | 0.00 | 73 | 1014.0 |
| 20260508164027 | 69 | 190 | 3.5 | 9.6 | 0.00 | 0.00 | 0.00 | 73 | 1014.1 |
| 20260508163526 | 69 | 121 | 2.6 | 9.6 | 0.00 | 0.00 | 0.00 | 73 | 1014.1 |
| 20260508163039 | 68 | 111 | 5.2 | 9.6 | 0.00 | 0.00 | 0.00 | 72 | 1014.0 |
| 20260508162526 | 68 | 114 | 3.5 | 7.8 | 0.00 | 0.00 | 0.00 | 73 | 1014.3 |
| 20260508162027 | 68 | 88 | 3.5 | 7.0 | 0.00 | 0.00 | 0.00 | 73 | 1014.3 |
| 20260508161551 | 68 | 126 | 1.7 | 8.7 | 0.00 | 0.00 | 0.00 | 74 | 1014.4 |
| 20260508161027 | 67 | 86 | 4.3 | 8.7 | 0.00 | 0.00 | 0.00 | 74 | 1014.5 |
| 20260508160525 | 67 | 75 | 2.6 | 7.8 | 0.00 | 0.00 | 0.00 | 74 | 1014.4 |
| 20260508160044 | 67 | 88 | 4.3 | 7.8 | 0.00 | 0.00 | 0.00 | 73 | 1014.6 |
| 20260508155525 | 67 | 115 | 2.6 | 7.8 | 0.00 | 0.00 | 0.00 | 74 | 1014.6 |
| 20260508155027 | 67 | 123 | 2.6 | 7.8 | 0.00 | 0.00 | 0.00 | 74 | 1014.6 |
| 20260508154547 | 67 | 76 | 2.6 | 7.8 | 0.00 | 0.00 | 0.00 | 74 | 1014.7 |
| 20260508154026 | 67 | 113 | 2.6 | 7.8 | 0.00 | 0.00 | 0.00 | 74 | 1014.7 |
| 20260508153526 | 66 | 92 | 2.6 | 7.0 | 0.00 | 0.00 | 0.00 | 74 | 1014.7 |
| 20260508153046 | 66 | 86 | 3.5 | 7.0 | 0.00 | 0.00 | 0.00 | 75 | 1014.7 |
| 20260508152529 | 66 | 74 | 0.9 | 5.2 | 0.00 | 0.00 | 0.00 | 77 | 1014.8 |
| 20260508152030 | 66 | 91 | 1.7 | 6.1 | 0.00 | 0.00 | 0.00 | 77 | 1014.9 |
| 20260508151553 | 66 | 65 | 2.6 | 7.0 | 0.00 | 0.00 | 0.00 | 78 | 1014.8 |
| 20260508151030 | 66 | 352 | 1.7 | 7.0 | 0.00 | 0.00 | 0.00 | 78 | 1014.8 |
| 20260508150526 | 66 | 63 | 2.6 | 6.1 | 0.00 | 0.00 | 0.00 | 78 | 1014.9 |
| 20260508150039 | 66 | 16 | 1.7 | 5.2 | 0.00 | 0.00 | 0.00 | 78 | 1014.9 |
| 20260508145527 | 66 | 27 | 2.6 | 5.2 | 0.00 | 0.00 | 0.00 | 79 | 1014.7 |
| 20260508145028 | 66 | 13 | 0.9 | 5.2 | 0.00 | 0.00 | 0.00 | 80 | 1014.7 |
| 20260508144545 | 66 | 47 | 2.6 | 5.2 | 0.00 | 0.00 | 0.00 | 80 | 1014.7 |
| 20260508144030 | 66 | 15 | 2.6 | 4.3 | 0.00 | 0.00 | 0.00 | 80 | 1014.6 |
| 20260508143527 | 65 | 352 | 1.7 | 4.3 | 0.00 | 0.00 | 0.00 | 80 | 1014.6 |
| 20260508143045 | 65 | 35 | 2.6 | 4.3 | 0.00 | 0.00 | 0.00 | 80 | 1014.5 |
| 20260508142529 | 65 | 39 | 0.9 | 3.5 | 0.00 | 0.00 | 0.00 | 80 | 1014.6 |
| 20260508142027 | 65 | 36 | 0.9 | 3.5 | 0.00 | 0.00 | 0.00 | 81 | 1014.7 |
| 20260508141544 | 64 | 5 | 1.7 | 3.5 | 0.00 | 0.00 | 0.00 | 81 | 1014.8 |
| 20260508141028 | 64 | 0 | 0.0 | 2.6 | 0.00 | 0.00 | 0.00 | 81 | 1014.9 |
| 20260508140526 | 64 | 0 | 0.9 | 2.6 | 0.00 | 0.00 | 0.00 | 81 | 1014.8 |
| 20260508140040 | 64 | 26 | 0.0 | 3.5 | 0.00 | 0.00 | 0.00 | 82 | 1014.8 |
| 20260508135527 | 63 | 39 | 0.0 | 3.5 | 0.00 | 0.00 | 0.00 | 82 | 1014.9 |
| 20260508135029 | 63 | 47 | 1.7 | 3.5 | 0.00 | 0.00 | 0.00 | 82 | 1014.9 |
| 20260508134545 | 63 | 26 | 1.7 | 3.5 | 0.00 | 0.00 | 0.00 | 83 | 1014.8 |
| 20260508134029 | 63 | 78 | 0.0 | 2.6 | 0.00 | 0.00 | 0.00 | 84 | 1014.9 |
| 20260508133532 | 62 | 0 | 0.9 | 3.5 | 0.00 | 0.00 | 0.00 | 85 | 1014.8 |
| 20260508133102 | 62 | 79 | 0.9 | 3.5 | 0.00 | 0.00 | 0.00 | 85 | 1014.9 |
| 20260508132529 | 62 | 0 | 0.9 | 3.5 | 0.00 | 0.00 | 0.00 | 85 | 1014.8 |
| 20260508132027 | 62 | 90 | 0.9 | 2.6 | 0.00 | 0.00 | 0.00 | 85 | 1014.8 |
| 20260508131541 | 61 | 0 | 0.0 | 2.6 | 0.00 | 0.00 | 0.00 | 86 | 1014.8 |
| 20260508131029 | 61 | 100 | 0.0 | 2.6 | 0.00 | 0.00 | 0.00 | 86 | 1014.9 |
| 20260508130528 | 61 | 96 | 0.9 | 2.6 | 0.00 | 0.00 | 0.00 | 87 | 1014.9 |
| 20260508130041 | 61 | 0 | 0.9 | 2.6 | 0.00 | 0.00 | 0.00 | 87 | 1014.9 |
| 20260508125527 | 61 | 51 | 0.0 | 2.6 | 0.00 | 0.00 | 0.00 | 88 | 1015.1 |
| 20260508125027 | 60 | 18 | 0.0 | 2.6 | 0.00 | 0.00 | 0.00 | 89 | 1015.1 |
| 20260508124545 | 60 | 19 | 0.0 | 0.9 | 0.00 | 0.00 | 0.00 | 89 | 1015.0 |
| 20260508124027 | 59 | 0 | 0.0 | 1.7 | 0.00 | 0.00 | 0.00 | 90 | 1015.1 |
| 20260508123529 | 59 | 0 | 0.0 | 1.7 | 0.00 | 0.00 | 0.00 | 90 | 1015.0 |
| 20260508123111 | 59 | 0 | 0.0 | 1.7 | 0.00 | 0.00 | 0.00 | 90 | 1014.9 |
| 20260508122527 | 59 | 0 | 0.0 | 1.7 | 0.00 | 0.00 | 0.00 | 90 | 1014.9 |
| 20260508122028 | 58 | 0 | 0.0 | 1.7 | 0.00 | 0.00 | 0.00 | 89 | 1014.7 |
| 20260508121545 | 58 | 10 | 0.0 | 2.6 | 0.00 | 0.00 | 0.00 | 90 | 1014.6 |
| 20260508121028 | 58 | 10 | 0.0 | 3.5 | 0.00 | 0.00 | 0.00 | 89 | 1014.5 |
| 20260508120529 | 58 | 10 | 0.9 | 5.2 | 0.00 | 0.00 | 0.00 | 89 | 1014.5 |
| 20260508120051 | 58 | 5 | 1.7 | 5.2 | 0.00 | 0.00 | 0.00 | 89 | 1014.3 |
| 20260508115527 | 58 | 5 | 2.6 | 5.2 | 0.00 | 0.00 | 0.00 | 89 | 1014.2 |
| 20260508115026 | 58 | 346 | 2.6 | 5.2 | 0.00 | 0.00 | 0.00 | 89 | 1014.2 |
| 20260508114545 | 58 | 332 | 2.6 | 5.2 | 0.00 | 0.00 | 0.00 | 89 | 1014.2 |
| 20260508114029 | 58 | 51 | 1.7 | 2.6 | 0.00 | 0.00 | 0.00 | 89 | 1014.2 |
| 20260508113527 | 58 | 84 | 0.9 | 2.6 | 0.00 | 0.00 | 0.00 | 89 | 1014.3 |
| 20260508113054 | 58 | 94 | 0.0 | 1.7 | 0.00 | 0.00 | 0.00 | 89 | 1014.3 |